Wind_Speed
24 23 24 23 21 19 18 18 18 17 16 15 14 13 13 14 14 14 15 9 6 10 9 11 7 5 5 3 3 3 5 5 4 5 4 5 6 4 3 5 6 6 2 5 10
25 24 26 26 24 22 21 19 20 19 19 18 16 14 14 16 17 18 12 10 9 9 11 12 9 6 6 4 3 6 5 4 1 1 0 3 5 6 5 7 8 7 9 9 10
26 26 25 28 27 25 23 21 21 21 19 19 18 15 13 14 16 4 3 13 12 11 12 11 10 6 6 4 5 3 8 3 4 2 2 2 3 4 6 7 10 9 9 12 14
26 28 28 27 29 29 26 24 22 22 20 18 17 15 13 8 5 5 1 6 15 12 13 12 10 10 8 7 4 7 4 3 3 3 3 3 2 6 11 12 4 7 8 12 15
24 26 29 30 27 28 28 25 23 22 20 18 16 14 12 7 17 12 7 4 16 16 15 13 11 11 12 10 6 8 6 5 4 4 5 4 10 12 12 13 11 12 12 13 14
26 26 27 32 28 27 30 26 24 23 19 18 15 13 10 12 11 10 13 8 17 18 17 15 8 9 7 7 12 5 6 5 5 7 5 6 13 5 11 11 13 15 14 14 16
26 25 25 29 31 29 22 26 25 22 19 17 15 13 14 21 10 9 7 10 17 19 15 17 9 8 6 6 4 4 6 6 10 6 5 3 12 15 20 14 14 14 14 15 17
23 25 23 24 30 27 28 31 26 22 20 16 14 12 13 11 15 24 10 11 15 16 14 13 11 5 3 7 4 4 4 7 4 4 1 6 13 8 5 8 14 14 14 16 18
22 22 25 23 23 26 24 31 26 18 15 14 11 10 12 11 21 19 22 13 13 14 13 10 10 6 6 8 6 4 8 6 4 4 2 8 8 0 1 4 10 12 15 18 19
20 21 25 25 21 18 32 23 23 18 16 11 10 6 18 10 15 13 22 18 10 14 10 8 7 9 8 10 10 9 9 7 9 3 5 8 16 16 19 16 19 18 18 19 22
20 21 22 26 27 17 14 23 19 10 24 14 13 12 3 18 10 12 22 21 9 15 13 13 11 16 20 16 13 9 7 11 12 4 5 14 17 17 21 21 22 24 24 23 24
20 20 20 23 28 30 17 14 26 7 8 32 19 25 9 12 9 12 21 19 15 14 13 7 18 19 13 11 11 11 12 14 12 4 5 14 19 20 20 25 27 26 26 26 24
17 18 18 25 27 31 31 21 21 19 6 13 32 20 16 17 9 21 24 23 19 17 18 19 10 11 14 10 12 14 15 14 12 10 10 10 16 12 10 13 20 22 23 23 27
17 18 19 20 25 23 26 24 23 12 4 9 16 19 19 12 9 14 26 22 8 21 16 15 12 13 14 19 16 17 12 12 12 10 11 2 9 15 16 19 17 21 18 19 21
19 18 19 18 14 17 11 2 20 21 6 12 23 12 25 27 15 18 27 15 18 14 13 12 14 17 14 14 14 15 5 9 8 12 11 14 9 5 10 19 15 3 2 11 18
22 20 19 24 23 23 22 27 2 6 9 8 16 20 19 32 23 13 18 10 11 12 6 16 3 14 18 12 15 10 6 3 2 5 12 15 13 8 7 6 7 6 8 8 13
23 24 22 22 23 13 15 8 5 6 12 11 12 20 31 18 26 17 18 19 13 13 17 14 13 6 5 11 5 15 10 7 7 6 12 2 7 15 19 14 15 15 16 7 8
24 26 26 24 23 19 10 4 10 8 11 6 9 15 28 20 25 23 20 21 24 20 12 15 11 17 14 19 9 18 18 9 9 10 7 3 7 3 5 10 17 16 13 10 9
28 27 23 22 23 19 7 5 6 5 16 11 18 19 18 20 14 21 28 26 25 24 15 15 14 9 12 12 17 8 12 15 17 7 8 11 12 14 20 9 4 8 7 7 10
25 24 25 16 20 20 5 12 10 4 10 19 12 16 22 28 18 22 24 23 26 26 22 9 5 7 11 7 2 12 12 7 8 10 13 8 8 8 12 10 11 9 7 4 8
19 6 11 6 18 14 7 8 15 21 16 13 11 9 17 26 25 27 19 12 30 24 22 14 11 6 8 16 19 9 10 6 6 12 10 11 6 5 4 3 10 10 7 4 9
6 4 4 18 8 8 12 9 14 16 26 11 5 4 18 23 22 22 24 19 31 26 31 22 12 12 14 4 11 22 20 21 12 11 7 12 16 7 8 8 7 9 7 3 6
6 10 12 22 8 10 13 12 16 10 15 7 12 9 6 17 13 18 16 8 24 24 21 18 12 12 8 6 4 12 18 19 22 14 20 13 5 4 5 5 4 7 3 3 4
4 3 5 17 13 10 18 22 24 24 23 16 7 4 9 13 7 16 13 5 19 25 22 26 11 22 13 4 14 14 17 18 20 15 15 19 19 17 16 15 12 8 9 6 6
4 4 4 4 10 19 18 9 25 21 25 18 12 14 14 10 15 10 13 7 7 12 14 17 20 16 20 8 11 14 15 19 23 24 20 17 21 18 20 18 16 17 16 19 15
4 3 5 11 16 14 19 20 19 28 10 20 18 25 14 12 16 14 15 16 14 8 20 9 10 18 16 14 13 14 17 19 22 23 23 21 23 16 22 21 20 19 18 17 15
10 10 7 10 13 8 11 26 23 25 30 25 28 18 20 15 13 16 14 17 14 16 20 16 10 12 17 16 13 15 20 20 19 17 19 20 21 21 14 15 19 17 14 17 16
Wind_Direction
258 263 269 272 277 280 277 274 275 275 281 294 300 303 307 306 304 291 273 244 231 210 190 192 197 186 173 176 156 140 227 214 188 190 153 160 194 178 204 173 182 195 203 193 193
257 253 262 268 270 274 276 273 272 270 274 284 294 300 304 307 308 291 273 228 211 194 192 195 197 190 182 175 171 225 235 212 146 159 201 172 223 184 202 201 215 217 226 224 202
264 256 250 257 263 268 271 272 272 268 269 274 285 293 298 309 317 263 201 212 206 201 192 199 203 196 192 182 190 186 236 182 180 204 201 198 229 203 225 222 233 238 237 228 211
280 262 252 249 255 258 265 268 270 268 265 271 277 281 289 298 280 203 110 213 200 200 188 185 191 203 201 198 181 226 220 205 165 193 197 242 238 239 231 254 239 253 241 222 221
270 274 257 251 252 255 256 262 266 265 263 268 272 275 278 260 249 252 256 292 195 195 191 186 189 205 215 211 185 228 221 213 233 226 233 253 255 269 251 254 257 257 250 232 221
269 267 272 256 251 249 251 255 260 263 259 262 267 268 257 252 262 253 242 249 197 194 197 194 202 205 211 214 214 179 205 222 244 237 242 247 265 250 255 249 240 245 240 228 218
267 266 266 264 250 249 259 255 254 255 253 255 257 257 250 243 250 248 229 216 199 199 203 207 207 187 172 169 170 169 226 227 230 238 241 254 261 245 267 247 247 239 234 222 220
272 267 265 270 252 241 243 249 244 249 249 245 249 249 252 254 239 233 220 204 198 196 202 211 200 188 190 133 140 217 240 246 129 175 160 199 272 273 278 233 247 243 232 226 222
286 275 270 260 259 245 250 244 236 236 235 233 236 219 261 236 240 233 213 201 200 193 193 195 180 181 161 206 216 210 253 236 271 190 171 220 279 166 142 223 260 249 238 231 226
285 274 275 263 262 231 234 221 223 216 218 210 211 213 243 223 231 219 202 194 177 174 165 174 184 197 210 213 222 232 234 239 256 155 209 251 264 275 280 272 267 261 250 236 228
280 289 276 282 258 276 232 205 183 182 202 194 206 211 207 203 185 196 192 184 171 185 193 187 205 210 213 222 247 246 243 270 274 259 272 273 278 282 282 277 263 257 248 240 231
274 273 274 277 282 258 270 250 195 222 192 227 232 232 213 178 185 192 181 177 185 198 196 183 220 222 228 216 212 230 248 260 281 280 245 292 287 284 276 269 268 265 255 244 233
289 280 277 274 281 271 265 260 224 217 259 203 225 231 222 207 205 191 178 190 196 198 200 210 213 192 195 195 212 230 246 260 268 306 255 295 277 263 277 260 270 259 250 244 232
294 285 274 278 285 281 274 288 223 193 219 207 182 234 218 185 226 188 186 180 188 209 203 226 195 186 199 216 217 242 228 253 267 282 285 351 289 291 290 284 271 271 254 242 228
307 289 280 264 262 256 234 28 223 171 224 186 184 199 190 193 155 192 189 192 194 178 197 198 191 200 206 216 209 246 221 241 256 264 292 252 273 270 278 280 296 344 272 252 234
314 290 274 264 259 260 264 266 227 180 223 197 161 176 163 200 204 148 176 188 194 194 224 230 180 210 217 209 190 146 145 149 198 258 254 259 239 283 264 275 300 293 295 304 221
309 306 283 256 252 270 272 302 216 225 146 184 184 178 188 181 189 176 181 188 181 188 206 198 208 186 168 179 162 194 209 238 236 215 257 63 241 257 274 294 288 289 295 301 227
308 303 288 251 246 240 248 170 240 195 199 181 174 180 196 160 198 193 185 198 208 205 188 200 208 203 184 216 187 202 210 220 242 256 282 147 234 220 284 290 288 279 278 279 223
309 309 294 263 229 220 193 204 229 178 192 168 147 167 192 188 180 188 203 203 197 197 195 201 222 182 190 194 204 176 218 236 258 265 265 253 248 274 280 287 301 317 287 259 213
312 309 281 271 220 205 193 219 242 212 242 169 164 191 184 186 187 195 193 209 201 198 203 186 209 178 174 171 166 211 160 186 214 242 245 236 255 250 292 337 339 336 293 247 202
313 271 265 250 197 202 240 215 228 251 270 221 192 170 195 181 193 195 196 193 196 188 201 188 223 146 170 204 197 182 195 215 251 233 247 260 242 216 259 309 330 331 324 255 206
297 263 222 194 182 208 217 206 246 268 250 265 256 160 186 180 193 194 209 201 194 181 194 193 206 209 207 169 257 220 217 211 220 194 239 265 262 236 265 301 302 303 315 256 205
289 278 247 201 209 212 225 217 226 253 234 241 230 209 166 174 182 201 204 197 182 185 188 175 203 202 206 208 189 219 216 231 230 246 251 238 246 165 220 265 275 278 267 251 200
270 283 244 223 233 230 215 215 223 238 244 261 260 170 165 180 191 185 190 163 185 189 194 176 200 211 210 237 186 205 213 213 222 230 237 242 257 264 263 268 276 268 254 238 254
231 256 288 284 239 234 229 228 212 218 218 214 248 220 189 171 184 184 165 139 164 190 185 190 214 213 230 208 206 208 205 208 220 232 239 251 253 248 252 264 265 265 259 253 270
251 258 297 286 296 251 227 232 226 215 218 217 225 222 215 194 191 175 165 178 175 177 190 203 216 208 219 219 221 226 225 226 224 230 241 246 257 263 263 273 271 264 258 256 250
262 277 267 278 275 290 246 215 215 217 206 226 208 219 229 237 200 190 156 167 159 167 181 179 170 188 227 219 231 248 227 228 230 229 232 236 246 259 257 259 255 261 252 257 265
Height
1535 1536 1536 1537 1536 1536 1536 1536 1535 1535 1535 1534 1532 1531 1530 1528 1527 1525 1524 1525 1525 1525 1527 1528 1528 1529 1529 1530 1530 1530 1527 1527 1527 1529 1526 1530 1530 1532 1532 1533 1534 1535 1536 1535 1536
1529 1530 1531 1532 1533 1533 1533 1531 1532 1531 1532 1531 1530 1529 1528 1526 1524 1521 1521 1521 1522 1524 1525 1527 1528 1528 1529 1530 1530 1528 1527 1525 1527 1528 1528 1529 1530 1530 1532 1532 1533 1534 1533 1534 1535
1525 1524 1525 1527 1528 1528 1529 1528 1528 1528 1529 1529 1527 1526 1526 1525 1523 1518 1517 1518 1520 1522 1524 1526 1528 1528 1528 1529 1529 1528 1525 1526 1527 1529 1530 1530 1530 1531 1530 1531 1530 1531 1533 1532 1532
1519 1519 1519 1520 1522 1523 1524 1524 1524 1524 1525 1525 1525 1525 1524 1524 1523 1517 1516 1516 1518 1521 1522 1524 1527 1527 1526 1525 1528 1527 1527 1527 1527 1528 1529 1529 1530 1529 1529 1527 1528 1529 1530 1530 1530
1514 1514 1514 1514 1516 1518 1519 1520 1520 1519 1520 1521 1521 1521 1522 1521 1517 1516 1515 1515 1516 1519 1521 1523 1524 1525 1524 1524 1526 1525 1525 1527 1527 1528 1528 1529 1528 1528 1526 1526 1526 1526 1526 1527 1528
1508 1508 1508 1508 1510 1512 1514 1515 1516 1516 1515 1517 1517 1518 1519 1518 1512 1512 1512 1514 1514 1517 1519 1521 1522 1523 1523 1523 1523 1523 1525 1525 1526 1526 1527 1527 1525 1527 1520 1521 1520 1521 1523 1524 1525
1502 1503 1503 1503 1504 1506 1506 1509 1512 1512 1512 1513 1513 1515 1513 1508 1508 1511 1510 1511 1512 1514 1517 1519 1520 1522 1522 1523 1524 1524 1523 1522 1522 1523 1524 1526 1521 1517 1516 1517 1517 1518 1519 1520 1521
1497 1497 1497 1498 1498 1501 1503 1505 1506 1507 1507 1509 1510 1512 1506 1503 1502 1506 1507 1509 1510 1512 1516 1517 1518 1520 1521 1523 1523 1522 1522 1520 1518 1522 1522 1524 1514 1510 1512 1513 1513 1514 1515 1516 1516
1492 1491 1491 1492 1493 1494 1496 1499 1499 1503 1504 1505 1507 1510 1503 1496 1496 1500 1503 1506 1509 1511 1513 1516 1517 1518 1521 1518 1519 1520 1516 1520 1517 1519 1519 1520 1510 1509 1511 1511 1511 1511 1511 1512 1513
1486 1486 1486 1486 1488 1486 1489 1488 1493 1497 1500 1502 1505 1509 1495 1491 1491 1494 1498 1503 1506 1509 1512 1515 1515 1513 1514 1515 1518 1516 1518 1516 1517 1516 1517 1514 1510 1507 1507 1508 1506 1506 1506 1506 1507
1481 1481 1481 1481 1481 1480 1485 1486 1492 1488 1489 1486 1488 1485 1483 1486 1489 1491 1493 1499 1502 1506 1505 1509 1510 1507 1503 1508 1508 1511 1514 1514 1510 1515 1516 1509 1505 1502 1501 1501 1500 1498 1497 1498 1499
1476 1476 1476 1477 1474 1475 1476 1475 1476 1476 1481 1481 1483 1484 1483 1483 1485 1488 1491 1496 1498 1499 1501 1508 1502 1499 1503 1508 1512 1513 1513 1512 1510 1515 1517 1505 1501 1496 1495 1491 1490 1489 1489 1490 1493
1472 1471 1471 1472 1469 1469 1469 1469 1472 1475 1472 1470 1476 1478 1478 1481 1480 1481 1486 1488 1490 1494 1496 1494 1495 1502 1504 1510 1512 1511 1512 1509 1514 1510 1512 1510 1496 1488 1486 1486 1482 1479 1480 1481 1485
1468 1467 1467 1468 1468 1463 1464 1467 1467 1472 1473 1461 1466 1465 1472 1475 1476 1476 1480 1484 1489 1489 1493 1492 1495 1501 1501 1503 1506 1509 1509 1510 1512 1514 1512 1511 1503 1485 1482 1476 1471 1471 1472 1474 1477
1465 1463 1463 1465 1462 1462 1464 1461 1464 1464 1453 1441 1445 1452 1457 1462 1461 1469 1474 1479 1479 1483 1490 1486 1494 1496 1500 1500 1504 1505 1507 1509 1510 1509 1510 1505 1511 1477 1477 1470 1464 1465 1467 1469 1471
1459 1458 1459 1457 1457 1458 1460 1460 1462 1457 1444 1433 1432 1438 1447 1451 1457 1465 1470 1475 1477 1480 1485 1481 1491 1489 1490 1496 1499 1503 1508 1510 1512 1509 1508 1494 1499 1479 1471 1464 1465 1465 1465 1466 1465
1453 1452 1452 1452 1452 1456 1456 1459 1462 1442 1430 1430 1425 1427 1426 1438 1449 1454 1462 1467 1467 1479 1482 1483 1485 1487 1490 1495 1501 1500 1502 1509 1506 1510 1498 1499 1501 1479 1464 1462 1463 1463 1462 1464 1463
1448 1444 1442 1442 1447 1453 1455 1457 1446 1414 1423 1412 1415 1424 1426 1433 1442 1445 1453 1456 1457 1458 1463 1477 1487 1481 1481 1480 1489 1494 1494 1495 1503 1492 1485 1507 1492 1469 1464 1463 1462 1461 1461 1461 1460
1440 1436 1432 1434 1440 1447 1451 1441 1425 1420 1412 1411 1414 1422 1426 1425 1431 1441 1436 1440 1445 1450 1459 1468 1471 1472 1476 1478 1481 1495 1495 1485 1489 1495 1500 1481 1470 1466 1457 1457 1459 1458 1457 1456 1457
1436 1431 1426 1429 1434 1442 1446 1431 1427 1409 1408 1403 1398 1406 1411 1415 1428 1432 1433 1427 1438 1445 1448 1458 1468 1470 1475 1480 1483 1480 1480 1495 1493 1498 1494 1473 1479 1469 1455 1455 1456 1455 1454 1455 1456
1431 1427 1420 1424 1430 1435 1426 1420 1414 1410 1416 1403 1395 1403 1396 1405 1412 1421 1415 1423 1429 1440 1446 1450 1454 1474 1475 1469 1468 1479 1480 1480 1477 1475 1477 1475 1464 1453 1455 1456 1457 1455 1455 1455 1455
1429 1423 1418 1419 1425 1421 1423 1417 1413 1408 1413 1410 1402 1395 1394 1398 1408 1416 1407 1412 1421 1431 1436 1441 1449 1456 1465 1463 1466 1460 1465 1468 1472 1477 1476 1471 1461 1450 1454 1456 1456 1455 1455 1454 1454
1425 1419 1413 1414 1407 1409 1406 1408 1409 1408 1405 1402 1394 1391 1394 1395 1407 1405 1410 1417 1420 1426 1428 1439 1445 1456 1466 1469 1469 1463 1460 1459 1460 1459 1461 1471 1457 1450 1454 1454 1454 1454 1453 1453 1452
1423 1417 1410 1407 1403 1404 1404 1400 1403 1403 1407 1405 1393 1390 1393 1391 1392 1403 1410 1417 1419 1421 1425 1432 1432 1432 1438 1439 1442 1457 1455 1458 1458 1459 1460 1449 1455 1447 1447 1447 1449 1451 1452 1452 1451
1419 1414 1410 1407 1398 1396 1399 1395 1392 1393 1395 1397 1394 1388 1379 1387 1393 1396 1402 1414 1420 1422 1425 1427 1430 1433 1431 1435 1439 1442 1447 1451 1453 1450 1449 1445 1444 1446 1442 1441 1443 1444 1446 1447 1447
1415 1413 1409 1403 1396 1388 1388 1389 1385 1384 1385 1386 1388 1380 1375 1377 1374 1387 1391 1398 1403 1420 1420 1424 1426 1429 1437 1438 1439 1440 1440 1440 1443 1443 1440 1442 1438 1436 1438 1439 1439 1438 1439 1440 1440
1410 1409 1409 1397 1393 1389 1378 1372 1372 1372 1370 1377 1383 1382 1378 1375 1376 1378 1382 1389 1394 1401 1412 1421 1425 1430 1434 1433 1440 1442 1436 1434 1435 1436 1436 1438 1432 1428 1433 1433 1433 1432 1433 1433 1433